SCP
0 0 0 0 0 0 0 0 0 0 0 0 0 0 0 0 0 0 0 0 0 0
0 0 0 0 0 0 0 0 0 0 0 0 0 0 0 0 0 0 0 0 0 0
0 0 0 0 0 0 0 0 0 0 0 0 0 0 0 0 0 0 0 -0 -0 0
0 0 0 0 0 0 0 0 0 0 0 0 0 0 0 0 0 0 -0 -0 -0 -0
0 0 0 0 0 0 0 0 0 0 0 0 0 0 0 0 0 0 0 0 0 -0
0 0 0 0 0 0 0 0 0 0 0 0 0 0 0 0 0 0 0 0 0 0
0 0 0 0 0 0 0 0 0 0 0 0 0 0 0 0 0 0 0 0 0 0
0 0 0 0 0 0 0 0 0 0 0 0 0 0 0 0 0 0 0 0 0 0
0 0 0 0 0 0 0 0 0 0 0 0 0 0 0 0 0 0 0 0 0 0
0 0 0 0 0 0 0 0 0 0 0 0 0 0 0 0 0 0 0 0 0 0
0 0 0 0 0 0 0 0 0 0 0 0 0 0 0 0 0 0 0 0 0 0
0 0 0 0 0 0 0 0 0 0 0 0 0 0 0 0 0 0 0 0 0 0
0 0 0 0 0 0 0 0 0 0 0 0 0 0 0 0 0 0 0 0 0 0
0 0 0 0 0 0 0 0 0 0 0 0 0 0 0 0 0 0 0 0 0 0
Wind_Speed_500mb
44 41 41 42 42 41 35 37 36 38 45 54 58 60 61 64 62 60 57 58 43 27
28 30 32 37 44 43 47 56 53 54 52 42 44 37 47 51 71 64 59 48 44 48
14 18 24 31 35 39 45 44 49 51 47 36 27 31 40 50 50 60 54 46 45 53
15 15 15 15 19 14 13 12 8 12 16 17 22 32 28 24 36 61 70 62 64 64
26 25 22 21 24 21 17 14 6 3 1 3 10 14 20 24 26 38 44 56 61 69
25 20 18 14 8 7 7 7 9 8 4 5 7 8 15 22 24 27 32 40 48 53
14 10 7 6 4 1 3 3 4 7 9 11 12 18 20 21 25 28 32 35 39 43
4 3 4 7 8 9 10 15 20 23 25 28 33 35 38 41 44 46 49 52 56 60
3 7 11 15 20 24 28 33 36 40 41 42 43 45 49 53 55 57 61 66 68 71
15 20 25 29 34 39 42 45 47 47 47 47 47 50 51 53 56 59 62 65 68 72
29 32 35 39 43 45 46 47 48 49 51 55 56 58 61 63 63 62 59 57 56 58
34 38 41 46 49 48 50 50 51 55 60 59 55 52 49 49 48 48 46 46 47 49
35 42 47 51 52 55 60 63 66 66 58 50 44 34 32 29 35 43 45 44 41 43
42 51 56 59 61 66 68 67 64 56 44 36 28 20 22 29 34 37 41 46 51 49
Wind_Direction_500mb
248 254 258 265 268 278 284 282 277 279 273 266 267 267 270 262 259 257 258 270 275 250
269 269 272 274 280 273 283 282 274 275 279 279 280 280 271 264 260 259 264 263 265 242
281 297 298 294 291 285 283 279 268 272 279 283 276 263 271 272 266 257 234 250 259 252
82 62 58 53 58 57 50 34 342 298 296 297 283 277 283 284 262 248 248 254 268 262
94 94 92 92 92 86 67 57 82 105 19 256 260 276 268 293 275 257 265 252 254 258
102 101 89 83 73 44 50 49 59 73 54 9 327 307 271 266 266 264 254 250 253 254
93 83 79 76 75 37 358 318 283 286 288 280 281 267 263 263 264 263 263 264 264 264
72 356 322 300 304 311 305 303 306 303 299 298 297 293 289 286 283 278 275 274 275 275
308 300 301 307 310 309 309 309 308 305 303 298 297 294 288 286 287 286 285 282 280 280
331 323 320 319 317 315 313 313 312 311 308 305 302 299 296 294 289 286 285 284 284 282
331 328 327 325 324 322 319 317 314 311 307 301 298 297 296 294 291 289 289 288 286 286
318 317 319 320 322 321 320 319 316 313 310 303 299 296 292 289 292 293 292 291 290 294
312 315 316 317 316 316 316 315 312 311 308 304 303 298 285 289 292 294 294 292 292 296
310 309 308 307 307 307 307 307 308 307 305 305 302 295 291 294 298 303 305 306 305 303
Wind_Speed_850mb
44 41 41 42 42 41 35 37 36 38 45 54 58 60 61 64 62 60 57 58 43 27
28 30 32 37 44 43 47 56 53 54 52 42 44 37 47 51 71 64 59 48 44 48
14 18 24 31 35 39 45 44 49 51 47 36 27 31 40 50 50 60 54 46 45 53
15 15 15 15 19 14 13 12 8 12 16 17 22 32 28 24 36 61 70 62 64 64
26 25 22 21 24 21 17 14 6 3 1 3 10 14 20 24 26 38 44 56 61 69
25 20 18 14 8 7 7 7 9 8 4 5 7 8 15 22 24 27 32 40 48 53
14 10 7 6 4 1 3 3 4 7 9 11 12 18 20 21 25 28 32 35 39 43
4 3 4 7 8 9 10 15 20 23 25 28 33 35 38 41 44 46 49 52 56 60
3 7 11 15 20 24 28 33 36 40 41 42 43 45 49 53 55 57 61 66 68 71
15 20 25 29 34 39 42 45 47 47 47 47 47 50 51 53 56 59 62 65 68 72
29 32 35 39 43 45 46 47 48 49 51 55 56 58 61 63 63 62 59 57 56 58
34 38 41 46 49 48 50 50 51 55 60 59 55 52 49 49 48 48 46 46 47 49
35 42 47 51 52 55 60 63 66 66 58 50 44 34 32 29 35 43 45 44 41 43
42 51 56 59 61 66 68 67 64 56 44 36 28 20 22 29 34 37 41 46 51 49
Wind_Direction_850mb
248 254 258 265 268 278 284 282 277 279 273 266 267 267 270 262 259 257 258 270 275 250
269 269 272 274 280 273 283 282 274 275 279 279 280 280 271 264 260 259 264 263 265 242
281 297 298 294 291 285 283 279 268 272 279 283 276 263 271 272 266 257 234 250 259 252
82 62 58 53 58 57 50 34 342 298 296 297 283 277 283 284 262 248 248 254 268 262
94 94 92 92 92 86 67 57 82 105 19 256 260 276 268 293 275 257 265 252 254 258
102 101 89 83 73 44 50 49 59 73 54 9 327 307 271 266 266 264 254 250 253 254
93 83 79 76 75 37 358 318 283 286 288 280 281 267 263 263 264 263 263 264 264 264
72 356 322 300 304 311 305 303 306 303 299 298 297 293 289 286 283 278 275 274 275 275
308 300 301 307 310 309 309 309 308 305 303 298 297 294 288 286 287 286 285 282 280 280
331 323 320 319 317 315 313 313 312 311 308 305 302 299 296 294 289 286 285 284 284 282
331 328 327 325 324 322 319 317 314 311 307 301 298 297 296 294 291 289 289 288 286 286
318 317 319 320 322 321 320 319 316 313 310 303 299 296 292 289 292 293 292 291 290 294
312 315 316 317 316 316 316 315 312 311 308 304 303 298 285 289 292 294 294 292 292 296
310 309 308 307 307 307 307 307 308 307 305 305 302 295 291 294 298 303 305 306 305 303